Simultaneous Nadir Overpasses (SNOs) Predictions

Prediction of SNOs between METOP-B and TERRA Satellite Orbit:

Table of predicted SNOs for the next 14.0 days since TLE Epoch: 11/7/2020
Index Date (METOP-B) Time (METOP-B) Lat,Lon (METOP-B) SZA (METOP-B ) Date (TERRA) Time (TERRA) Lat,Lon (TERRA) SZA (TERRA ) Distance(km) Time Diff (sec)
1 11/09/2020 10:09:59 81.29, 74.09 101.38 11/09/2020 10:10:45 81.29, 74.19 101.42 1.84 46
2 11/09/2020 11:00:39 -81.29,-118.14 78.56 11/09/2020 11:00:12 -81.29,-118.23 78.59 1.70 27
3 11/12/2020 05:44:21 81.29, 140.65 102.16 11/12/2020 05:44:59 81.29, 140.56 102.17 1.39 38
4 11/12/2020 06:35:01 -81.29, -51.58 77.78 11/12/2020 06:34:25 -81.30, -51.45 77.78 2.43 36
5 11/15/2020 01:18:45 81.28,-153.21 102.85 11/15/2020 01:19:14 81.28,-153.11 102.87 1.72 29
6 11/15/2020 02:09:24 -81.30, 14.95 77.05 11/15/2020 02:08:40 -81.30, 14.90 77.07 0.98 44
7 11/17/2020 20:53:07 81.29, -86.29 103.58 11/17/2020 20:53:28 81.29, -86.45 103.57 2.68 21
8 11/17/2020 21:43:48 -81.29, 81.07 76.41 11/17/2020 21:42:55 -81.29, 81.20 76.42 2.13 53
9 11/20/2020 16:27:30 81.29, -20.18 104.17 11/20/2020 16:27:42 81.28, -20.21 104.16 1.01 12
